Regional Weather Roundup
Issued by NWS

Home | Current Version | Previous Version | Graphics & Text | Print | Product List | Glossary On
Versions: 1 2 3 4 5 6 7 8 9 10 11 12 13 14 15 16 17 18 19 20 21 22 23 24 25 26 27 28 29 30 31 32 33 34 35 36 37 38 39 40 41 42 43 44 45 46 47 48 49 50
691
ASUS44 KJAN 200110
RWRMS

MISSISSIPPI HOURLY WEATHER ROUNDUP
NATIONAL WEATHER SERVICE JACKSON MS
800 PM CDT SAT APR 19 2014

NOTE: "FAIR: INDICATES FEW OR NO CLOUDS BELOW 12,000 FEET WITH NO
SIGNIFICANT WEATHER AND/OR OBSTRUCTIONS TO VISIBILITY.

MSZ001>002-007>008-010>013-018>021-025>028-034>036-200200-
NORTHWEST MISSISSIPPI

CITY           SKY/WX    TMP DP  RH WIND       PRES   REMARKS
CLARKSDALE       N/A     68  48  49 CALM      30.14R
CLEVELAND      FAIR      70  53  54 N3        30.12S
GREENWOOD      CLEAR     65  52  62 CALM      30.11R
GREENVILLE     CLEAR     70  52  52 N6        30.11S
GRENADA        FAIR      63  52  67 CALM      30.12R
OXFORD         FAIR      64  46  52 CALM      30.14R
TUNICA         CLEAR     64  48  55 N7        30.14R
$$

MSZ003>006-009-014>017-022>024-029>033-037>039-200200-
NORTHEAST MISSISSIPPI

CITY           SKY/WX    TMP DP  RH WIND       PRES   REMARKS
BELMONT        FAIR      64  48  56 CALM      30.13R
COLUMBUS AFB   CLEAR     66  49  54 CALM      30.11R
CORINTH        FAIR      66  45  45 NW3       30.13R
GOLDN TRIANGLE CLEAR     70  45  40 N3        30.13R
STARKVILLE     FAIR      63  52  67 CALM      30.12R
TUPELO         PTCLDY    69  44  40 CALM      30.12R
$$

MSZ040-058-200200-
CENTRAL MISSISSIPPI

CITY           SKY/WX    TMP DP  RH WIND       PRES   REMARKS
JACKSON INTL   PTCLDY    65  54  67 CALM      30.11S
JACKSON HAWKNS CLEAR     71  51  49 CALM      30.12R
MERIDIAN KEY   CLEAR     62  53  72 CALM      30.11R
MERIDIAN NAS   CLEAR     67  48  50 NW5       30.11R
RAYMOND        FAIR      63  57  82 CALM      30.12S
VICKSBURG      CLEAR     71  55  56 NW3       30.12R
$$

MSZ059>079-200200-
SOUTH MISSISSIPPI

CITY           SKY/WX    TMP DP  RH WIND       PRES   REMARKS
BROOKHAVEN     FAIR      66  54  63 CALM      30.13S
COLUMBIA       FAIR      64  57  77 MISG      30.10R
HATTIESBURG    CLEAR     67  55  65 CALM      30.10R
MCCOMB         CLEAR     68  51  54 CALM      30.11R
NATCHEZ        CLEAR     68  54  60 CALM      30.12R
PINE BELT      CLEAR     63  54  72 NW3       30.11R
$$

MSZ080>082-200200-
COASTAL MISSISSIPPI

CITY           SKY/WX    TMP DP  RH WIND       PRES   REMARKS
BAY ST LOUIS   CLEAR     64  55  72 CALM      30.09R
BILOXI         CLEAR     71  54  53 NW6       30.08R
PASCAGOULA     CLEAR     64  57  78 CALM      30.07R
GULFPORT       CLEAR     72  53  51 N6        30.08R
$$



USA.gov is the U.S. government's official web portal to all federal, state and local government web resources and services.